Forks, WA

5:24 AM PST on February 21, 2017 (GMT -0800)
MFKSWA | | Change Station
Active Advisory: Small Craft Advisory

Elev 311 ft 47.97 °N, 124.40 °W | Updated 18 minutes ago

Partly Cloudy
Partly Cloudy
31.0 °F
Feels Like 31 °F
N
1.0
Wind Variable Wind from East

Today
High -- | Low -- °F
--% Chance of Precip.
Yesterday
High -- | Low -- °F
Precip. -- in
Pressure 29.75 in
Visibility 10.0 miles
Clouds Clear
Windchill 31 °F
Dew Point 31 °F
Humidity 97%
Rainfall 0.08 in
Snow Depth Not available.
7:12 AM 5:50 PM
Waning Crescent, 25% visible
METAR KUIL 211253Z AUTO 35006KT 10SM CLR 01/01 A2975 RMK AO2 SLP074 T00060006
Pressure 29.75 in
Visibility 10.0 miles
Clouds Clear
Windchill 31 °F
Dew Point 31 °F
Humidity 97%
Rainfall 0.08 in
Snow Depth Not available.
7:12 AM 5:50 PM
Waning Crescent, 25% visible
METAR KUIL 211253Z AUTO 35006KT 10SM CLR 01/01 A2975 RMK AO2 SLP074 T00060006

Get Your Daily Forecast Email!

Thanks for signing up!

Be on the lookout for a verification email in your inbox.

You'll start receiving the daily forecast at 8 AM.

×

10-Day Weather Forecast

Almanac

Astronomy

Feb. 21, 2017 Rise Set
Actual Time
Civil Twilight
Nautical Twilight
Astronomical Twilight
Moon
Length of Visible Light
Length of Day
Tomorrow will be .
, % of the Moon is Illuminated

Today's Extremes

State Highs State Lows

Community

WunderPhotos

Upload Photos

1,962,540 photos uploaded!

WunderBlog® & News

Nearby

Air Quality

  Air Quality AQ Index Pollutant
Not available.

Snow Depth

Station Depth Elevation

Earthquake Activity

City Distance Mag. Time & Date
Minimum magnitude displayed is 2.5.

Coastal Water Temperatures

Place Temperature

Stations

Nearby Weather Stations

Station Location Temp. Windchill Dew Point Humidity Wind Precip. Elev Updated Type
                   

Watches & Warnings

Small Craft Advisory
Issued: 2:50 AM PST Feb. 21, 2017 – National Weather Service

... Small Craft Advisory in effect from 7 am this morning to 4 PM
PST Wednesday...

The National Weather Service in Seattle has issued a Small Craft
Advisory... which is in effect from 7 am this morning to 4 PM PST
Wednesday.

* Winds... north to northwest winds increasing to 15 to 25 knots
this morning and continuing into Wednesday.

* Waves... wind waves 3 to 5 feet.

Precautionary/preparedness actions...

A Small Craft Advisory means that wind speeds of 21 to 33 knots are
expected to produce hazardous wave conditions to small craft.
Inexperienced mariners... especially those operating smaller vessels
should avoid navigating in these conditions.